OpenBCM V2.0.3 (Linux)

Packet Radio Mailbox

IZ3LSV

[San Dona' di P. JN]

 Login: GUEST





  
LU9DCE > KEPS     02.10.16 03:03l 183 Lines 8963 Bytes #999 (0) @ WW
BID : 9570_LU9DCE
Read: GUEST
Subj: TLE OF oct 2016
Path: IZ3LSV<ED1ZAC<CX2SA<LU9DCE
Sent: 161002/0101Z @:LU9DCE.TOR.BA.ARG.SOAM #:9570 [TORTUGUITAS] $:9570_LU9DCE
From: LU9DCE@LU9DCE.TOR.BA.ARG.SOAM
To  : KEPS@ALL

OSCAR 3
1 01293U 65016F   16275.80444803  .00000239  00000-0  17811-3 0  9990
2 01293  70.0745 168.8469 0019208 221.6910 138.2739 14.06100753634028
OSCAR 5
1  4321U 70008B   16274.74928661 -.00000031 +00000-0 +91917-4 0  9994
2  4321 101.7878 338.6076 0027479 309.8343 164.9511 12.52168986133569
OSCAR 6
1 06236U 72082B   16275.13099841 -.00000042  00000-0  17997-4 0  9996
2 06236 101.6668 238.4063 0004452  97.8953  32.5107 12.53133066 10952
OSCAR 7
1 07530U 74089B   16275.82804569 -.00000043  00000-0  83477-5 0  9998
2 07530 101.5889 244.0388 0012367 102.5973 286.8934 12.53623373916487
OSCAR 8
1 10703U 78026B   16275.51612127  .00000164  00000-0  14238-3 0  9992
2 10703  98.8480 240.3343 0006584 343.3392 154.0070 13.99214975968414
OSCAR 10
1 14129U 83058B   16274.52922407 -.00000128  00000-0  00000+0 0  9993
2 14129  26.8346  76.0782 6006232 235.8215  21.6436  2.05870566222471
OSCAR 11 (UoSAT 2)
1 14781U 84021B   16275.72367654  .00000258  00000-0  38289-4 0  9996
2 14781  97.7373 324.3977 0007775 335.5236  24.5607 14.82800331752049
OSCAR 16 (PACSAT)
1 20439U 90005D   16275.83732814  .00000033  00000-0  28477-4 0  9997
2 20439  98.5803 211.2418 0010306 199.4072 223.7045 14.32648436394419
OSCAR 17 (DOVE)
1 20440U 90005E   16275.48730005  .00000042  00000-0  31395-4 0  9993
2 20440  98.5609 210.3427 0010577 185.8006 238.2474 14.33039765394597
OSCAR 18 (WEBERSAT)
1 20441U 90005F   16274.82201183  .00000037  00000-0  29621-4 0  9994
2 20441  98.5640 209.0018 0010985 197.1517 220.8813 14.32695708394352
OSCAR 19 (LUSAT)
1 20442U 90005G   16275.41998123  .00000042  00000-0  31406-4 0  9998
2 20442  98.5490 208.9084 0011499 186.7970 173.3060 14.32831598394563
JAS 1B (FUJI 2)
1 20480U 90013C   16275.52678718 -.00000032  00000-0  89799-5 0  9995
2 20480  99.0219  91.5565 0539445 257.1579 166.9003 12.83412529248548
COSMOS 2123
1 21089U 91007A   16274.86731657 +.00000055 +00000-0 +42020-4 0  9992
2 21089 082.9197 090.2933 0030451 109.6362 002.8925 13.74639912286720
OSCAR 22 (UoSAT 5)
1 21575U 91050B   16274.90627453 +.00000059 +00000-0 +33108-4 0  9994
2 21575 098.7640 279.0402 0007261 000.9232 359.1968 14.40761129323747
OSCAR 23 (KITSAT 1)
1 22077U 92052B   16274.96798442 -.00000032 +00000-0 +11838-3 0  9995
2 22077 066.0840 149.5317 0006513 201.9709 254.2967 12.86515391133673
KITSAT B
1 22825U 93061C   16275.51176377  .00000025  00000-0  27385-4 0  9992
2 22825  98.7722 232.4802 0008727  14.5719 345.5713 14.29969976200437
POSAT 1
1 22826U 93061D   16275.81185156  .00000032  00000-0  29673-4 0  9991
2 22826  98.7666 232.8945 0009060   4.4548 355.6713 14.30296112200648
ITAMSAT
1 22828U 93061F   16275.79621760  .00000024  00000-0  26650-4 0  9999
2 22828  98.7572 231.7805 0009403 332.5176  27.5508 14.30606567168999
EYESAT A
1 22829U 93061G   16275.83990744  .00000019  00000-0  24609-4 0  9992
2 22829  98.7611 234.3486 0009105 322.9057  67.0158 14.30942076201129
RADIO ROSTO
1 23439U 94085A   16274.50756060 -.00000036 +00000-0 +18074-3 0  9999
2 23439 064.8144 279.1832 0167471 289.8490 149.7721 11.27565510896139
JAS 2
1 24278U 96046B   16275.20760044 -.00000047  00000-0 -79890-5 0  9993
2 24278  98.5820 186.5399 0349378 288.1960  68.1445 13.53070927993855
TMSAT
1 25396U 98043C   16275.80418213  .00000034  00000-0  33054-4 0  9993
2 25396  98.5497 220.1289 0002993  23.0107 337.1206 14.24409515947387
TECHSAT 1B
1 25397U 98043D   16274.91865902 +.00000006 +00000-0 +21370-4 0  9993
2 25397 098.5763 217.1611 0002204 058.8097 301.3298 14.23603757946687
SEDSAT 1
1 25509U 98061B   16274.89006734 +.00000265 +00000-0 +37445-4 0  9992
2 25509 031.4335 096.3066 0347326 249.9682 106.3232 14.30230191937524
PAN SAT
1 25520U 98064B   16274.50718399  .00001548  00000-0  47272-4 0  9997
2 25520  28.4581 312.5002 0005379   7.6915 352.3762 15.27931555994529
ISS (ZARYA)
1 25544U 98067A   16275.92677701  .00006048  00000-0  98924-4 0  9994
2 25544  51.6436 245.5926 0006638  28.2463  37.2755 15.54011112 21595
OSCAR 36 (UOSAT 12)
1 25693U 99021A   16275.17764819  .00000053  00000-0  25264-4 0  9991
2 25693  64.5561 203.9126 0008109 323.7863  36.2692 14.80682772941813
OPAL
1 26063U 00004C   16275.83933329  .00000019  00000-0  26356-4 0  9998
2 26063 100.1972 225.6769 0036081 317.7755  42.0648 14.36634330874285
SAUDISAT 1A
1 26545U 00057A   16274.86514635  .00000191  00000-0  39991-4 0  9998
2 26545  64.5545 171.3427 0055866 263.6299  95.8444 14.84626619865847
TIUNGSAT 1
1 26548U 00057D   16275.83979439  .00000344  00000-0  52683-4 0  9999
2 26548  64.5501  87.3234 0049623 259.0192 100.5332 14.88828242867638
SAUDISAT 1B
1 26549U 00057E   16275.29057333  .00000207  00000-0  42966-4 0  9991
2 26549  64.5548 202.6071 0059915 266.8360  92.5890 14.83252671865245
AMSAT OSCAR 40
1 26609U 00072B   16274.32406112 -.00000133 +00000-0 +00000-0 0  9999
2 26609 007.1907 279.7473 7968112 025.7486 358.5009 01.25587501072951
PCSAT
1 26931U 01043C   16275.54688180 -.00000005  00000-0  29751-4 0  9994
2 26931  67.0525  38.5038 0005333 267.0893  92.9598 14.30426517783355
SAPPHIRE
1 26932U 01043D   16275.54854895 -.00000028  00000-0  20978-4 0  9990
2 26932  67.0572  40.4743 0004731 248.4219 111.6379 14.30225299783382
RUBIN 2
1 27605U 02058A   16275.81620847  .00000046  00000-0  27520-4 0  9992
2 27605  64.5557 176.8053 0056704 192.4433 167.5273 14.74837144741378
SAUDISAT 1C
1 27607U 02058C   16275.39444834  .00000156  00000-0  43145-4 0  9990
2 27607  64.5555 196.3391 0055983 192.7522 167.2168 14.75217025740932
MOZHAYETS 4
1 27939U 03042A   16275.80422012  .00000256  00000-0  54606-4 0  9997
2 27939  97.9043  63.4650 0012269 331.9105 163.9524 14.66460065695446
AMSAT ECHO
1 28375U 04025K   16275.79136817  .00000069  00000-0  33553-4 0  9997
2 28375  98.3337 208.9334 0082351 343.7840  16.0716 14.41800899644589
HAMSAT
1 28650U 05017B   16275.48979713  .00000700  00000-0  80942-4 0  9997
2 28650  97.6192 253.1612 0022070 267.3984  92.4706 14.88423032617688
SSETI-EXPRESS
1 28894U 05043E   16275.51236744  .00000135  00000-0  36146-4 0  9999
2 28894  97.8522  79.2166 0015814 252.7455 107.2017 14.61379860582554
MOZ.5/SAFIR/RUBIN 5/SL-8
1 28898U 05043G   16274.95186589 +.00000116 +00000-0 +33243-4 0  9995
2 28898 097.8929 070.5400 0018472 283.8577 076.0569 14.60130330205370
PEHUENSAT 1
1 29712U 07001D   16275.77191377  .00004542  00000-0  27866-3 0  9999
2 29712  97.5743 296.6118 0009291  86.0510 274.1782 15.10590412528309
DELFI C3
1 32789U 08021G   16275.81499225  .00002785  00000-0  20701-3 0  9996
2 32789  97.5960 333.1460 0011144 256.8109 103.1873 15.03771401458020
YUBELEINY
1 32953U 08025A   16275.76574765 -.00000002  00000-0 -83332-4 0  9992
2 32953  82.5053  40.3614 0019872 129.1473 231.1377 12.43071789379318
PRISM (HITOMI)
1 33493U 09002B   16275.82145629  .00000952  00000-0  92392-4 0  9996
2 33493  98.2021 140.8675 0014430 212.7632 147.2707 14.95169077417168
STARS (KUKAI)
1 33498U 09002G   16275.53360959  .00000639  00000-0  95421-4 0  9992
2 33498  98.3008  75.1716 0012325  98.1557 331.7744 14.78352705413685
KKS-1 (KISEKI)
1 33499U 09002H   16275.50431745  .00000374  00000-0  63474-4 0  9991
2 33499  98.3027  67.7923 0010395 115.1776 245.0512 14.75057771413224
SUMBANDILA
1 35870U 09049F   16275.82811519  .00010013  00000-0  17903-3 0  9999
2 35870  97.1159 289.2982 0001548  60.0717  65.0323 15.50201621393159
XIWANG-1 (HOPE-1)
1 36122U 09072B   16275.77004450 -.00000041  00000-0  32668-5 0  9996
2 36122 100.1330 307.2663 0008188 109.8842 250.3155 13.16336154326632
JUGNU
1 37839U 11058B   16274.96637881 +.00000359 +00000-0 +49655-4 0  9993
2 37839 019.9607 222.2203 0018952 205.4805 216.9690 14.12555226256892
SRMSAT
1 37841U 11058D   16275.31028171  .00000334  00000-0  38806-4 0  9991
2 37841  19.9716 256.4971 0012078 117.3966  17.6183 14.10552468256682
RAX-2
1 37853U 11061D   16275.81384304  .00004771  00000-0  27935-3 0  9995
2 37853 101.7040   6.5980 0178889 130.0202 231.6861 15.00262678267883
AUBIESAT-1
1 37854U 11061E   16275.71937006  .00004151  00000-0  23250-3 0  9996
2 37854 101.6980  12.0936 0171622 119.3439 242.5036 15.02836298268095
M-CUBED/EXP-1 PRIME
1 37855U 11061F   16275.81493864  .00005169  00000-0  28237-3 0  9997
2 37855 101.7109  10.2291 0184536 124.0295 237.8593 15.01762061267993
CHIBIS-M
1 38051U 11062C   14288.65876392  .70201582  12497-4  27925-2 0  9995
2 38051 051.5964 324.1908 0006422 269.6897 186.8903 16.43533377153081
MASAT-1
1 38081U 12006E   15009.86954674  .36181825  49011-5  43735-3 0  9992
2 38081 069.4150 141.5751 0006093 101.2598 259.4750 16.49686879155248

======================================================================
Si vives alegre, rico eres.
======================================================================
        __  __  __ __
|  /  \(__\|  \/  |_    BBS GF05OM TORTUGUITAS 145010Mhz
|__\__/ __/|__/\__|__   TELNET LU9DCE.DYNU.COM PORT 6300
== power by linux ===   NODO LU9DCE.DYNU.COM PORT 3694

*** https://www.facebook.com/groups/newpacketradio/



Read previous mail | Read next mail


 14.09.2026 17:56:17lGo back Go up